Location: Northern Prairie Star Party
(53.2167°N, 112.5333°W)
Time: 00:41:59
(UTC-06:00)

Daily predictions for brighter satellites

Satellite Brightness Start Highest point End
(mag) Time Altitude Azimuth Time Altitude Azimuth Time Altitude Azimuth
Mayak 0.9 00:03:08 10° ENE 00:05:01 13° E 00:06:13 11° ESE
Cosmos 2151 Rocket 4.0 00:03:11 26° SSE 00:05:17 46° E 00:09:32 10° NNE
CZ-2C R/B 3.6 00:01:30 10° NNE 00:06:05 31° E 00:08:25 22° SE
Cosmos 1190 Rocket 4.1 00:01:59 10° NNW 00:07:12 69° ENE 00:10:27 23° SE
H-2A R/B 2.7 00:04:49 20° SSW 00:07:20 44° W 00:11:21 10° NNW
Meteor 1-20 Rocket 4.2 00:04:54 16° SSW 00:09:36 87° WNW 00:15:17 10° NNE
Cosmos 1812 4.4 00:12:10 10° NNW 00:15:29 27° W 00:18:05 14° SW
Cosmos 2227 Rocket 2.5 00:10:03 10° NW 00:15:35 56° WSW 00:18:54 24° S
Cosmos 1656 4.4 00:14:03 24° SSE 00:16:20 34° ESE 00:21:18 10° NE
Cosmos 676 Rocket 4.4 00:13:19 10° NNW 00:18:29 56° ENE 00:21:52 21° SE
USA 229 DEB 4.5 00:18:08 23° SSE 00:21:06 32° ESE 00:27:07 10° ENE
USA 229 4.5 00:18:17 23° SSE 00:21:12 32° ESE 00:27:12 10° ENE
Cosmos 1140 Rocket 4.3 00:16:24 10° NNW 00:21:22 44° NE 00:24:58 18° ESE
CZ-4C R/B 2.9 00:14:43 10° NW 00:21:32 82° NE 00:27:59 16° SE
Cosmos 883 Rocket 4.5 00:16:39 10° N 00:22:53 77° ENE 00:26:39 25° SSE
GP-B 4.1 00:19:50 10° NNE 00:23:57 35° E 00:25:51 24° SE
S3M 4.2 00:18:46 10° NNW 00:24:48 63° W 00:29:00 21° S
Meteor 1-19 Rocket 4.3 00:19:57 10° NNW 00:25:50 79° W 00:29:25 25° S
Cosmos 1943 Rocket 4.3 00:21:40 10° W 00:26:23 27° NW 00:31:06 10° NNE
Cosmos 2263 Rocket 4.0 00:21:45 10° NNW 00:26:37 28° NE 00:31:27 10° E
Cosmos 407 Rocket 3.5 00:21:23 10° NNW 00:26:46 85° ENE 00:29:48 27° SSE
ISS -3.9 00:25:42 10° W 00:28:56 64° S 00:30:01 37° ESE
Meteor 1-13 Rocket 4.4 00:24:36 10° NNW 00:30:22 74° W 00:33:54 25° S
Cosmos 1624 Rocket 4.4 00:30:06 27° SSE 00:32:32 46° ESE 00:37:39 10° NE
BREEZE-M (TANK) 3.6 00:20:46 10° W 00:32:51 59° SSW 00:35:14 23° SE
USA 129 3.2 00:32:56 10° NNE 00:34:24 30° NE 00:34:24 30° NE
ATLAS 3B R/B 4.3 00:31:11 10° WNW 00:37:38 36° N 00:43:47 10° ENE
CZ-4B R/B 3.5 00:34:53 10° NNE 00:39:53 76° WNW 00:43:07 21° SSW
Terra 3.9 00:38:56 10° SW 00:42:16 19° W 00:45:39 10° NW
Cosmos 1980 Rocket 3.4 00:43:36 22° SE 00:45:26 26° ESE 00:50:01 10° NE
Okean 2 Rocket 4.1 00:43:45 16° SW 00:47:00 42° WNW 00:51:17 10° N
Cosmos 2369 3.7 00:44:05 24° SSW 00:47:39 70° ESE 00:53:20 10° NE
CZ-4B R/B 3.5 00:45:58 15° E 00:47:41 20° ENE 00:50:18 10° NNE
Meteor 1-23 Rocket 4.2 00:43:53 10° NNW 00:49:37 89° ENE 00:52:38 29° SSE
Meteor 2-4 Rocket 3.7 00:45:12 10° NNW 00:50:32 70° W 00:53:21 28° S
Cosmos 1536 2.9 00:50:55 38° S 00:52:21 69° E 00:56:26 10° NNE
Okean 1 Rocket 3.3 00:52:40 34° SSE 00:54:15 55° E 00:58:31 10° NNE
Okean 2 3.6 00:52:46 10° N 00:56:55 63° ENE 00:58:29 35° SE
Cosmos 1954 Rocket 4.0 00:51:47 10° NNW 00:57:04 86° ENE 00:59:51 29° SSE
Meteor 1-5 Rocket 4.4 00:56:02 29° SSE 00:58:48 59° E 01:04:10 10° NNE
ATLAS CENTAUR R/B 2.4 00:56:18 10° WSW 01:00:02 42° NW 01:03:37 10° NE
CZ-4C R/B 3.9 00:59:39 30° ESE 01:00:43 39° ENE 01:03:57 10° N
Meteor 1-11 Rocket 3.9 00:58:18 25° SSW 01:01:59 85° WNW 01:07:58 10° NNE
Cosmos 2056 Rocket 3.4 01:01:06 30° S 01:03:38 72° ESE 01:08:47 10° NNE
Cosmos 1025 Rocket 2.9 01:00:44 10° N 01:05:07 88° E 01:06:47 37° SSE
Okean 1-7 Rocket 3.5 01:01:15 10° N 01:05:40 88° E 01:07:25 36° SSE
NOSS 3-1 (C) 4.4 01:07:23 24° SE 01:09:15 29° ESE 01:14:44 10° ENE
Cosmos 2297 Rocket 3.4 01:04:35 10° NW 01:09:24 29° WSW 01:11:56 21° SW
CZ-2C R/B 3.5 01:07:47 27° SSW 01:10:08 46° W 01:14:50 10° NNW
Lacrosse 5 rocket 2.2 01:06:37 10° WNW 01:10:13 46° N 01:14:00 10° ENE
Cosmos 1697 Rocket 2.8 01:08:35 30° S 01:11:18 60° ESE 01:16:50 10° NE
Cosmos 2266 Rocket 4.2 01:13:20 22° SSW 01:17:23 64° WNW 01:23:28 10° N
Cosmos 614 Rocket 3.8 01:15:12 10° NNW 01:20:18 86° WSW 01:22:45 32° SSE
ATLAS CENTAUR R/B 4.4 01:08:06 10° W 01:27:26 71° N 01:33:27 10° ENE
Cosmos 1452 Rocket 3.8 01:27:26 32° S 01:29:39 54° ESE 01:34:49 10° NNE
Cosmos 2315 Rocket 4.4 01:23:51 10° NNW 01:29:50 52° W 01:33:14 25° SSW
Cosmos 921 Rocket 2.9 01:28:49 37° SSW 01:30:28 90° WNW 01:34:43 10° NNE
ALOS 2 3.5 01:29:26 27° SW 01:31:02 37° W 01:35:08 10° NNW
SL-16 R/B 3.7 01:30:24 18° SE 01:32:34 23° ESE 01:36:53 10° NE
Cosmos 1238 Rocket 3.7 01:27:53 10° N 01:33:08 87° W 01:36:19 30° S
Cosmos 1850 Rocket 4.0 01:28:11 10° NNW 01:33:36 86° ENE 01:36:30 28° SSE
Landsat 5 3.5 01:33:25 35° SE 01:34:51 63° ENE 01:38:44 10° N
Genesis I 4.3 01:31:56 10° WNW 01:35:25 29° WSW 01:35:40 29° SW
Cosmos 1689 Rocket 2.6 01:37:02 43° SE 01:37:46 57° ENE 01:40:58 10° N
Cosmos 2322 Rocket 3.6 01:36:23 20° SE 01:38:38 25° ESE 01:43:14 10° NE
Mayak -1.3 01:37:05 10° NNE 01:41:19 89° W 01:42:53 38° SSW
Cosmos 1461 3.3 01:37:40 10° NW 01:41:49 47° SW 01:42:55 38° SSW
Cosmos 2278 4.3 01:41:24 14° SW 01:46:17 54° NW 01:51:53 10° NNE
CZ-2C R/B 3.2 01:41:37 10° N 01:46:36 49° WNW 01:49:57 20° SW
Cosmos 1892 Rocket 3.6 01:43:07 10° NNW 01:47:37 76° W 01:49:20 37° S
Cosmos 1975 3.1 01:47:23 38° SSE 01:48:41 58° E 01:52:41 10° NNE
Cosmos 44 Rocket 3.3 01:44:09 10° NW 01:48:54 77° NE 01:52:26 18° SE
CENTAUR R/B 4.3 01:44:54 10° WNW 01:51:17 38° N 01:58:28 10° ENE
Cosmos 2360 4.3 01:50:56 31° S 01:53:42 64° ESE 01:59:21 10° NE
Cosmos 1420 Rocket 4.1 01:53:22 32° S 01:55:38 61° ESE 02:00:46 10° NNE
Cosmos 1515 4.5 01:52:49 10° NNW 01:56:23 39° W 01:57:19 33° SW
SWAS 4.5 01:53:44 10° NW 01:57:59 63° WSW 01:59:25 38° S
Cosmos 2227 Rocket 4.4 01:57:27 10° W 01:58:24 10° W 01:59:20 10° WSW
Cosmos 1656 4.3 01:55:27 16° SW 01:59:48 53° NW 02:05:17 10° NNE
SL-24 R/B 4.3 01:58:16 31° S 02:00:44 82° WSW 02:05:24 10° NNW
GP-B 4.4 01:57:17 10° NNW 02:01:13 32° WNW 02:03:18 21° WSW
SAR-Lupe-2 3.5 02:00:45 47° S 02:01:39 72° WSW 02:05:15 10° NNW
Cosmos 1140 Rocket 4.3 01:58:23 10° NW 02:03:07 37° WSW 02:04:58 28° SW
ISS -1.4 02:02:13 10° W 02:02:37 12° W 02:02:37 12° W
Cosmos 1626 Rocket 3.8 02:00:59 10° N 02:05:23 66° ENE 02:07:28 29° SSE
Cosmos 1066 Rocket 4.2 02:01:03 10° NNW 02:06:25 65° W 02:08:59 31° S
CZ-4C R/B 3.6 02:03:33 10° WNW 02:09:50 35° WSW 02:13:07 25° SSW
Cosmos 2263 Rocket 2.2 02:05:31 10° NNW 02:11:15 86° WSW 02:15:05 22° SSE
USA 229 DEB 3.8 02:05:32 14° SW 02:11:30 81° NW 02:18:36 10° NE
USA 229 3.8 02:05:40 15° SW 02:11:36 82° NW 02:18:41 10° NE
Nadezhda 1 Rocket 4.1 02:09:48 10° NNW 02:15:52 66° W 02:19:15 27° SSW
NOSS 3-1 (A) 3.7 02:14:14 28° S 02:17:14 54° SE 02:23:45 10° NE
Cosmos 1741 Rocket 4.4 02:13:34 10° NW 02:18:34 47° WSW 02:20:41 30° SSW
Cosmos 220 Rocket 3.9 02:14:31 10° NNW 02:18:46 89° NE 02:20:49 30° SSE
CZ-4B R/B 2.1 02:19:32 37° SW 02:20:09 40° W 02:23:27 10° NNW
Cosmos 839 Rocket 4.0 02:17:56 25° SSW 02:21:39 76° SE 02:28:00 10° NE
Cosmos 1544 Rocket 3.6 02:21:04 34° SSW 02:22:58 74° WNW 02:27:27 10° N
Cosmos 1743 2.7 02:26:11 39° S 02:27:32 82° E 02:31:26 10° NNE
Cosmos 1709 Rocket 4.2 02:24:00 24° SSE 02:27:43 63° E 02:33:46 10° NNE
Cosmos 2360 Rocket 3.7 02:25:09 16° SSE 02:28:14 26° ESE 02:32:47 10° NE
Cosmos 1500 3.9 02:26:54 29° WSW 02:28:20 43° WNW 02:32:03 10° N
Cosmos 1842 3.3 02:24:43 10° N 02:28:37 72° ENE 02:30:21 31° SSE
Cosmos 1980 Rocket 2.4 02:25:21 23° SW 02:29:00 69° NW 02:34:38 10° NNE
ATLAS 3B R/B 3.1 02:22:39 10° NW 02:29:32 63° NE 02:36:06 10° ESE
Cosmos 1844 Rocket 3.9 02:24:22 10° NNW 02:29:47 43° NE 02:35:11 10° ESE
GRACE-1 4.4 02:30:35 42° W 02:30:40 42° W 02:33:18 10° NNW
GRACE-2 4.4 02:30:42 43° W 02:30:47 43° W 02:33:25 10° NNW
Cosmos 44 3.0 02:26:46 10° NW 02:31:04 61° SW 02:33:15 28° SSE
Cosmos 1386 Rocket 4.4 02:33:33 26° SSW 02:37:04 77° WNW 02:43:13 10° N
Helios 1A Rocket 4.1 02:35:09 10° NNE 02:38:51 33° E 02:40:54 21° SSE
Cosmos 1455 Rocket 3.3 02:37:01 31° SW 02:38:59 60° WNW 02:43:22 10° N
ATLAS CENTAUR R/B 4.1 02:37:22 10° NW 02:39:52 17° NNW 02:42:21 10° NNE
H-2A R/B 2.3 02:35:57 10° NNE 02:40:00 81° ESE 02:41:38 34° S
Meteor 1-12 Rocket 4.4 02:39:36 25° SSW 02:42:59 65° WNW 02:48:41 10° N
Cosmos 405 3.5 02:47:47 32° SW 02:49:01 48° WNW 02:52:29 10° N
Lacrosse 5 rocket 1.2 02:45:53 10° WNW 02:49:42 82° NNE 02:53:45 10° ESE
Cosmos 1486 Rocket 4.0 02:45:53 10° NNW 02:51:15 86° ENE 02:55:50 14° SSE
BREEZE-M DEB (TANK) 2.4 02:53:13 32° SW 02:54:22 52° S 03:00:52 10° E
Cosmos 1697 Rocket 4.0 02:50:27 10° WSW 02:55:36 35° NW 03:00:47 10° NNE
Resurs 1-4 Rocket 3.8 02:53:44 10° NE 02:58:03 25° E 03:02:18 10° SE
NOSS 3-1 (C) 3.6 02:54:45 18° SW 02:59:25 81° NW 03:06:22 10° NE
USA 238 DEB 4.0 02:54:04 10° NW 03:01:10 76° NE 03:08:19 10° SE
USA 238 4.0 02:54:10 10° NW 03:01:16 75° NE 03:08:26 10° SE
SL-08 R/B 3.4 02:57:56 16° SSE 03:01:32 75° ENE 03:06:11 10° NNW
Cosmos 2278 Rocket 3.8 02:59:14 10° NNW 03:04:28 36° NE 03:09:41 10° ESE
Cosmos 1953 Rocket 3.9 03:01:48 10° N 03:06:16 68° ENE 03:09:49 16° SSE
Cosmos 1437 Rocket 3.0 03:04:38 29° SSW 03:06:39 68° WNW 03:10:47 10° N
Cosmos 2181 Rocket 4.2 03:00:30 10° NNW 03:06:50 63° W 03:11:14 21° SSW
Cosmos 1354 Rocket 4.4 03:01:52 10° NNW 03:07:10 67° ENE 03:12:28 10° SE
GENESIS II 4.1 03:03:11 10° NW 03:07:11 86° SW 03:11:06 10° SE
Cosmos 1707 3.6 03:04:04 10° N 03:07:50 46° ENE 03:11:14 12° SSE
Cosmos 1602 Rocket 4.4 03:04:04 10° NNW 03:08:08 36° W 03:10:01 24° SW
SL-16 R/B 2.9 03:02:05 10° SSE 03:08:16 66° ENE 03:14:30 10° NNW
Cosmos 2184 Rocket 4.5 03:03:33 15° SSE 03:08:30 55° E 03:14:30 10° NNE
UNK 4.4 03:05:39 10° SE 03:10:10 54° ENE 03:14:41 10° N
NOSS 3-2 (A) 4.4 03:08:39 10° NW 03:15:43 63° NNE 03:23:33 10° ESE
SL-16 R/B 2.3 03:12:16 22° SW 03:16:05 78° WNW 03:21:48 10° NNE
Mayak 1.2 03:14:03 10° NNW 03:16:22 15° NW 03:18:41 10° W
Cosmos 1666 3.4 03:14:41 25° SW 03:16:30 42° WNW 03:20:14 10° N
Cosmos 2058 Rocket 4.3 03:13:56 13° SSE 03:17:36 37° E 03:21:44 10° NNE
Meteor 2-9 Rocket 4.3 03:17:35 21° SSW 03:21:36 79° WNW 03:27:31 10° NNE
Cosmos 2322 Rocket 2.3 03:18:11 20° SW 03:22:12 72° NW 03:27:57 10° NNE
Meteor 2-5 Rocket 4.0 03:20:00 10° N 03:25:40 71° ENE 03:31:25 10° SSE
COBE Rocket 4.2 03:21:19 10° NNE 03:26:32 74° ESE 03:30:26 18° S
USA 234 4.0 03:20:57 10° ENE 03:27:01 39° SE 03:31:28 18° SSW
Cosmos 1302 Rocket 4.3 03:24:46 19° S 03:28:29 62° ESE 03:33:43 10° NNE
ADEOS Rocket 3.1 03:22:31 10° NNE 03:28:52 72° ESE 03:33:29 17° S
Nadezhda 3 Rocket 4.4 03:23:06 10° N 03:29:19 65° ENE 03:35:34 10° SSE
Cosmos 44 Rocket 4.5 03:26:20 10° WNW 03:29:58 22° WSW 03:31:06 20° SW
Cosmos 1844 3.8 03:25:22 10° NNW 03:31:00 78° ENE 03:36:40 10° SE
Cosmos 1726 Rocket 3.9 03:27:58 18° S 03:31:12 64° E 03:35:36 10° NNE
CZ-2D R/B 3.1 03:27:10 10° NNE 03:32:25 44° E 03:37:34 10° S
Cosmos 1110 Rocket 4.1 03:29:37 21° SW 03:33:09 73° WNW 03:38:22 10° NNE
Cosmos 1184 Rocket 3.1 03:30:40 10° N 03:33:59 67° ENE 03:36:52 13° SSE
IRS-P3 4.2 03:30:13 10° NNE 03:35:37 85° ESE 03:39:44 18° SSW
Cosmos 1607 4.2 03:31:03 10° NW 03:37:14 51° WSW 03:43:26 10° SSE
NOSS 3-2 (C) 4.4 03:30:57 10° NW 03:38:03 65° NE 03:45:56 10° ESE
Cosmos 2074 Rocket 4.0 03:33:10 16° S 03:38:18 88° ESE 03:44:39 10° N
NPP 3.7 03:33:19 10° NNE 03:38:45 85° ESE 03:42:59 17° SSW
Meteor 1-15 Rocket 4.3 03:35:06 18° SSW 03:39:24 85° WNW 03:45:13 10° NNE
IRS-1D 4.2 03:36:27 10° NNE 03:41:15 47° E 03:45:56 11° S
CENTAUR R/B 4.1 03:36:35 10° NW 03:43:38 47° NNE 03:51:27 10° E
Cosmos 1503 Rocket 4.0 03:39:02 10° NNW 03:44:19 69° WSW 03:49:37 10° SSE
Cosmos 1606 Rocket 3.6 03:43:49 19° SSW 03:47:02 80° WNW 03:51:33 10° N
Meteor 2-8 Rocket 4.4 03:43:55 10° NNW 03:50:03 84° W 03:56:11 10° S
ADEOS 4.4 03:46:01 10° NNE 03:51:05 47° E 03:56:06 10° S
BREEZE M DEB (TANK) 3.0 03:47:18 13° WSW 03:51:11 39° S 03:53:27 10° ESE
Cosmos 2263 Rocket 3.7 03:50:39 10° WNW 03:54:23 18° W 03:56:44 14° SW
Meteor 1-4 Rocket 2.9 03:57:18 19° SW 03:59:37 52° WNW 04:03:12 10° N
ARIANE 5 R/B 2.9 03:56:11 10° NNE 04:01:18 62° ESE 04:06:26 10° S
BREEZE-M DEB (TANK) 2.3 03:56:55 10° W 04:01:48 47° S 04:04:11 10° ESE
Cosmos 1271 Rocket 3.2 03:58:57 12° S 04:02:37 60° E 04:06:32 10° NNE
ATLAS 2AS CENTAUR R/B 3.3 03:56:04 14° SSW 04:02:50 65° SE 04:10:55 10° NE
Cosmos 1610 Rocket 4.5 03:57:38 12° S 04:03:21 89° W 04:09:33 10° N
Cosmos 2154 Rocket 4.2 03:57:05 10° S 04:03:22 75° E 04:09:37 10° NNE
Cosmos 2237 4.3 03:59:53 15° SSW 04:04:43 74° ESE 04:10:26 10° NE
Cosmos 1340 Rocket 2.7 04:02:05 10° NNW 04:06:05 77° WSW 04:10:00 10° S
Cosmos 1758 Rocket 4.4 04:02:58 10° NNW 04:06:52 33° W 04:09:52 15° SSW
BREEZE M DEB (TANK) 2.2 04:05:33 18° WSW 04:06:59 42° S 04:11:04 10° E
NOSS 3-1 (A) 4.2 04:02:11 10° WSW 04:08:14 55° NNW 04:15:12 10° NE
Cosmos 2228 3.0 04:06:30 13° SSW 04:10:15 83° W 04:14:37 10° N
Cosmos 2360 Rocket 2.3 04:06:55 14° SW 04:11:46 71° NW 04:17:26 10° NNE
Cosmos 2219 Rocket 3.1 04:08:06 10° S 04:13:26 44° ESE 04:18:48 10° NE
Cosmos 1844 Rocket 3.0 04:08:23 10° NW 04:13:48 47° WSW 04:19:11 10° S
Cosmos 1980 Rocket 4.1 04:09:43 10° W 04:14:02 22° NNW 04:18:22 10° NNE
Helios 1A Rocket 4.0 04:10:28 10° N 04:14:04 31° WNW 04:17:12 13° WSW
NOSS 2-3 (E) 4.1 04:10:10 14° SW 04:14:26 83° SE 04:20:29 10° NE
SL-8 R/B 4.3 04:12:03 14° SW 04:15:52 40° SSE 04:20:23 10° E
UNKNOWN OBJECT B 3.7 04:12:38 10° NNE 04:16:20 44° E 04:20:06 10° S
ATLAS 3B R/B 2.9 04:13:42 10° NW 04:20:05 44° WSW 04:26:12 10° S
ATLAS CENTAUR R/B 4.1 04:17:51 10° NNW 04:20:11 16° N 04:22:29 10° NE
Aureole 2 Rocket 3.5 04:16:50 10° S 04:20:46 48° ESE 04:24:33 10° NE
Cosmos 2237 Rocket 3.7 04:17:50 10° SSE 04:22:41 31° ESE 04:27:34 10° NE
Cosmos 1378 3.9 04:19:19 10° NNW 04:22:44 34° W 04:25:50 12° SSW
SeaSat 1 3.5 04:20:07 10° ESE 04:24:52 50° NE 04:29:39 10° NNW
ATLAS CENTAUR R/B 2.5 04:16:19 10° WNW 04:25:19 73° SW 04:28:41 10° SE
Lacrosse 5 rocket 2.1 04:25:17 10° WNW 04:28:39 28° SW 04:32:11 10° SSE
COSMOS 2428 2.8 04:23:22 11° SSW 04:28:57 82° ESE 04:34:44 10° NNE
Cosmos 2341 Rocket 4.2 04:22:32 10° S 04:28:57 83° E 04:35:20 10° NNE
ADEOS II 3.9 04:25:25 10° NNE 04:29:58 28° E 04:34:28 10° SSE
Iridium 4 Rocket 4.1 04:27:28 10° SSW 04:32:58 48° W 04:38:09 10° N
Cosmos 972 Rocket 4.0 04:29:33 10° SSW 04:34:26 81° WNW 04:39:42 10° NNE
Cosmos 389 Rocket 2.6 04:31:13 10° S 04:34:49 84° E 04:38:28 10° NNE
Resurs 1-4 Rocket 2.3 04:33:05 10° N 04:38:20 63° WNW 04:43:31 10° SSW
USA 161 1.8 04:37:16 10° SSE 04:40:09 66° ENE 04:42:54 10° N
Cosmos 1356 Rocket 3.3 04:37:20 10° NNW 04:41:24 75° W 04:45:23 10° S
Cosmos 1707 4.3 04:40:39 10° NW 04:43:27 19° W 04:46:14 10° SW
Cosmos 2322 4.2 04:39:53 10° SW 04:45:25 52° NW 04:50:59 10° NNE
Cosmos 1758 4.3 04:41:58 10° S 04:45:52 48° E 04:49:50 10° NNE
Cosmos 2333 Rocket 2.7 04:41:32 10° SSW 04:47:08 61° ESE 04:52:45 10° NE
NOSS 2-3 (C) 4.4 04:42:46 10° WSW 04:47:48 70° NW 04:54:00 10° NE
MOZ.5/SAFIR/RUBIN 5/SL-8 4.1 04:44:04 10° S 04:48:30 44° W 04:52:58 10° NNW
Cosmos 2278 Rocket 2.3 04:43:18 10° NW 04:48:53 58° WSW 04:54:25 10° SSE
Cosmos 1953 3.3 04:46:17 10° SSE 04:50:09 46° E 04:54:01 10° NNE
USA 238 DEB 4.3 04:45:24 10° NW 04:51:46 37° WSW 04:58:09 10° S
USA 238 4.3 04:45:30 10° NW 04:51:52 37° WSW 04:58:17 10° S
SL-16 R/B 3.5 04:47:02 10° SSW 04:52:23 29° W 04:57:47 10° NNW
Cosmos 968 Rocket 3.7 04:48:58 10° NW 04:53:58 50° WSW 04:58:55 10° S
Meteor 2-15 4.5 04:48:27 10° NNW 04:54:39 81° W 05:00:47 10° S
Cosmos 2058 Rocket 4.2 04:51:37 10° SW 04:55:40 32° WNW 04:59:43 10° N
CZ-2D R/B 3.6 04:52:23 10° NNE 04:56:45 82° WNW 05:00:58 10° SSW
Cosmos 1674 2.8 04:53:00 10° N 04:56:53 88° E 05:00:45 10° S
Cosmos 1076 Rocket 3.7 04:53:38 10° N 04:57:55 75° ENE 05:02:10 10° SSE
ERBS 4.0 04:56:31 10° SSW 04:59:23 24° SE 05:02:16 10° E
Cosmos 1812 Rocket 3.6 04:55:56 10° SSW 05:00:17 74° WNW 05:04:39 10° N
Meteor 1-24 Rocket 4.3 04:55:37 10° NNW 05:00:33 37° W 05:05:37 10° SSW
SL-16 R/B 3.9 04:56:34 10° W 05:01:07 24° NNW 05:05:42 10° NNE
